Location: Six Mile Lake
(44.9000°N, 79.7170°W)
Time: 01:06:14
(UTC-04:00)

O/OREOS (USA 219) - Pass Details

Date: 04 July 2022
Orbit: 621 x 646 km, 72.0° (Epoch: 22 May)

Event Time Altitude Azimuth Distance (km) Brightness Sun altitude
Rises 23:45:53 0° 346° (NNW) 2,965 ? -18.7°
Reaches altitude 10° 23:48:36 10° 1° (N) 2,053 ? -18.9°
Maximum altitude 23:52:15 23° 53° (NE) 1,388 ? -19.2°
Enters shadow 23:54:39 16° 93° (E) 1,703 ? -19.3°
